Tracking 19193 objects as of 24-Jun-2018
HD Live streaming from Space Station
objects crossing your sky now

BEIDOU 3M5


BEIDOU 3M5 is classified as:


NORAD ID: 43207
Int'l Code: 2018-018A
Launch date: February 12, 2018
Source: People's Republic of China (PRC)
Launch site: Xichang Space Center, China (XSC)
aabbcc
Your satellite tracking list
Your tracking list is empty




NASA's NSSDC Master Catalog

Two Line Element Set (TLE):
1 43207U 18018A   18174.01868838 +.00000075 +00000-0 +00000-0 0  9999
2 43207 055.0019 160.7416 0009495 308.1891 051.7184 01.86231722002437
Source of the keplerian elements: AFSPC